Meteo Giornale » Osservazioni meteo Stati Uniti (USA) » San Antonio
ore: 22:51 - Osservazioni Meteo San Antonio
Lat. 29° 31' N Lon. 98° 27' W Alt. 246 metri s.l.m.
31 °C
Poco Nuvoloso
Temp. 24 Ore
26 °C
36 °C
Sud-Est
25.9 Km/h
Dew point 21 °C
Umidità 55 %
Visibilità 10 Km
Il sole sorge alle ore 07:10
Il sole tramonta alle ore 19:57
| Data e Ora | Cielo e Fenomeni | T °C | DP °C | Um. % | Pres. hPa | Vis. km | Vento km/h | |
|---|---|---|---|---|---|---|---|---|
| Oggi h: 22:51 | Poco Nuvoloso | 31 | 21 | 55 | 1015 | 10 | SE 25.9 | |
| Oggi h: 21:51 | Nuvoloso | 32 | 20 | 49 | 1014 | 10 | S/SE 27.8 | |
| Oggi h: 20:51 | Nuvoloso | 33 | 20 | 46 | 1013 | 10 | E/SE 31.5 | |
| Oggi h: 19:51 | Nuvoloso | 34 | 18 | 38 | 1012 | 10 | E 11.1 | |
| Oggi h: 18:51 | Poco Nuvoloso | 36 | 18 | 34 | 1012 | 10 | E 16.7 | |
| Oggi h: 17:51 | Poco Nuvoloso | 36 | 18 | 34 | 1012 | 10 | E 9.3 | |
| Oggi h: 16:51 | Nuvoloso | 35 | 19 | 39 | 1013 | 10 | E 11.1 | |
| Oggi h: 15:51 | Nuvoloso | 36 | 19 | 36 | 1014 | 10 | E 16.7 | |
| Oggi h: 14:51 | Nuvoloso | 35 | 19 | 39 | 1015 | 10 | N 5.5 | |
| Oggi h: 13:51 | Molto Nuvoloso | 34 | 19 | 41 | 1016 | 10 | S/SE 9.3 | |
| Oggi h: 12:51 | Nuvoloso | 33 | 20 | 46 | 1016 | 10 | N 7.4 | |
| Oggi h: 11:51 | Poco Nuvoloso | 32 | 22 | 55 | 1017 | 10 | S/SE 18.5 | |
| Oggi h: 10:51 | Poco Nuvoloso | 30 | 22 | 62 | 1017 | 10 | N 9.3 | |
| Oggi h: 09:51 | Nuvoloso | 29 | 23 | 70 | 1017 | 10 | S/SE 13 | |
| Oggi h: 09:25 | Nuvoloso | 28 | 23 | 74 | 1017 | 10 | SE 11.1 | |
| Oggi h: 08:51 | Molto Nuvoloso | 28 | 24 | 78 | 1016 | 10 | SE 13 | |
| Oggi h: 07:51 | Molto Nuvoloso | 26 | 24 | 88 | 1016 | 10 | SE 11.1 | |
| Oggi h: 06:51 | Molto Nuvoloso | 26 | 24 | 88 | 1016 | 10 | S/SE 9.3 | |
| Oggi h: 05:51 | Coperto | 26 | 24 | 88 | 1016 | 10 | S 9.3 | |
| Oggi h: 04:51 | Molto Nuvoloso | 26 | 24 | 88 | 1016 | 10 | S 18.5 | |
| Oggi h: 03:51 | Molto Nuvoloso | 26 | 24 | 88 | 1016 | 10 | SE 14.8 | |
| Oggi h: 02:51 | Molto Nuvoloso | 27 | 24 | 83 | 1016 | 10 | S 14.8 | |
| Oggi h: 01:51 | Poco Nuvoloso | 27 | 23 | 78 | 1016 | 10 | SE 18.5 | |
| Oggi h: 00:51 | Poco Nuvoloso | 27 | 23 | 78 | 1016 | 10 | S/SE 20.3 | |
| Ieri h: 23:51 | Poco Nuvoloso | 28 | 21 | 65 | 1016 | 10 | SE 13 | |



